Home   Weather   Tangier   Past weeks

Flag for Morocco Past Weather in Tangier, Morocco — Yesterday and Last 2 Weeks

Now
75 °F

Passing clouds.


Feels Like: 77 °F
Forecast: 67 / 83 °F
Wind: 9 mph from Northwest

Location: Tanger Aerodrome

Current Time: Jul 22, 2017 at 5:53:41 pm

Latest Report: Jul 22, 2017 at 5:30 pm


Visibility: N/A

Pressure: 29.98 "Hg

Humidity: 61%

Dew Point: 61 °F

Location of TangierLocation

Past Weather in Tangier — Graph

°F

Tangier Temperature Yesterday

Maximum temperature yesterday: 77 °F (at 1:30 pm)
Minimum temperature yesterday: 66 °F (at 3:30 am)
Average temperature yesterday: 71 °F

High & Low Weather Summary for the Past Weeks

 TemperatureHumidityPressure
High97 °F (Jul 12, 1:00 pm)94% (Jul 10, 7:30 am)30.12 "Hg (Jul 10, 7:30 am)
Low63 °F (Jul 22, 5:30 am)27% (Jul 12, 2:30 pm)29.83 "Hg (Jul 17, 5:00 pm)
Average77 °F63%29.96 "Hg
* Reported Jul 7 5:00 pm — Jul 22 5:00 pm, Tangier. Weather by CustomWeather, © 2017

Note: Actual official high and low records may vary slightly from our data, if they occured in-between our weather recording intervals... More about our weather records

Advertising

Tangier Weather History for the Previous 24 Hours

Scroll right to see more
 ConditionsComfort  
Time TempWeatherWind HumidityBarometerVisibility
5:00 pm
Sat, Jul 22
75 °FPassing clouds.10 mph65%29.98 "HgN/A
4:30 pm75 °FScattered clouds.10 mph61%29.98 "HgN/A
4:00 pm77 °FPassing clouds.10 mph61%29.98 "HgN/A
3:30 pm75 °FPassing clouds.12 mph65%29.98 "HgN/A
3:00 pm77 °FPassing clouds.10 mph65%29.98 "HgN/A
2:30 pm77 °FPassing clouds.9 mph61%30.01 "HgN/A
2:00 pm77 °FSunny.14 mph61%30.01 "Hg10 mi
1:30 pm75 °FSunny.13 mph65%30.01 "Hg10 mi
1:00 pm77 °FSunny.13 mph61%30.01 "Hg10 mi
12:30 pm75 °FPassing clouds.12 mph61%30.01 "HgN/A
12:00 pm75 °FPassing clouds.12 mph61%30.01 "HgN/A
11:30 am73 °FScattered clouds.13 mph65%30.01 "Hg5 mi
11:00 am73 °FScattered clouds.12 mph65%30.01 "Hg5 mi
10:30 am73 °FPassing clouds.10 mph61%30.01 "Hg5 mi
10:00 am72 °FPassing clouds.12 mph61%30.01 "Hg5 mi
9:30 am72 °FPassing clouds.10 mph61%30.01 "Hg5 mi
9:00 am70 °FPassing clouds.10 mph69%30.01 "Hg5 mi
8:00 am66 °FPassing clouds.6 mph78%29.98 "Hg5 mi
7:30 am64 °FPassing clouds.3 mph83%29.98 "Hg5 mi
6:30 am63 °FScattered clouds.5 mph83%29.98 "HgN/A
5:30 am63 °FScattered clouds.3 mph83%29.95 "HgN/A
4:30 am64 °FPassing clouds.5 mph83%29.95 "Hg5 mi
4:00 am64 °FPassing clouds.6 mph78%29.95 "Hg5 mi
3:30 am64 °FPassing clouds.7 mph83%29.95 "Hg5 mi
3:00 am64 °FPassing clouds.6 mph83%29.95 "Hg5 mi
2:30 am64 °FPassing clouds.5 mph78%29.98 "HgN/A
2:00 am66 °FPassing clouds.5 mph78%29.98 "HgN/A
1:30 am66 °FPassing clouds.6 mph78%29.98 "HgN/A
1:00 am66 °FPassing clouds.7 mph78%29.98 "HgN/A
12:30 am66 °FPassing clouds.7 mph78%29.98 "HgN/A
12:00 am66 °FPassing clouds.7 mph78%29.98 "HgN/A
11:30 pm
Fri, Jul 21
66 °FPassing clouds.7 mph78%29.98 "HgN/A
11:00 pm66 °FPassing clouds.7 mph78%30.01 "HgN/A
10:30 pm68 °FPassing clouds.7 mph73%29.98 "HgN/A
10:00 pm68 °FPassing clouds.7 mph73%29.98 "HgN/A
9:30 pm68 °FPassing clouds.7 mph73%29.98 "HgN/A
9:00 pm68 °FPassing clouds.6 mph73%29.95 "HgN/A
8:30 pm70 °FPassing clouds.9 mph69%29.95 "HgN/A
8:00 pm72 °FPassing clouds.8 mph65%29.95 "HgN/A
7:30 pm72 °FPassing clouds.8 mph65%29.95 "HgN/A
7:00 pm72 °FPassing clouds.9 mph65%29.95 "HgN/A
6:30 pm73 °FPassing clouds.10 mph61%29.95 "HgN/A
6:00 pm73 °FPassing clouds.12 mph61%29.95 "HgN/A
5:30 pm75 °FPassing clouds.13 mph57%29.95 "HgN/A
5:00 pm75 °FPassing clouds.10 mph57%29.95 "HgN/A
Weather by CustomWeather, © 2017

See weather overviewHow to use our weather pages